Volver al catálogo

NSS 12

ActivoComunicacionesGEO
NORAD 36032·PAYLOAD·🇱🇺 Luxembourg

Lanzado Oct 29, 2009 desde Guiana Space Centre

Loading…

TLE

ActualizadoSource: CelesTrak SupGP

Época: Sep 13, 2026, 23:30 UTC

1 36032C 09058A   26256.97916667 -.00003670  00000+0  00000+0 0  2569
2 36032   0.0085 106.3753 0003323  26.9365 269.1555  1.00272195    17

Sigue NSS 12 en tiempo real con AllMySat

Download on the App Store